Preview of NWS' New Version of Forecast
This preview is not operational and should not be used for support decisions.
Latest weather observations around

Anniston Metro Airport (KANB)

Using International System of Units (Switch to English Units)
Date/ Time (CDT) Wind (kph) Vis. (km) Weather Sky Cond. Temp (°C) Rel. Humidity Wind Chill (°C) Heat Index (°C) Pressure Precip. (cm)
Air Dwpt 6 hour Altimeter (hPa) Sea level (hPa) 1 hr 3 hr 6 hr
Max Min
May 27 21:53 ENE 5 16.09 Clear CLR 24 21     82%   24 1013.2 1012.3      
May 27 20:53 ENE 5 16.09 Clear CLR 23 21     87%   24 1012.9 1011.9      
May 27 19:53 Calm 16.09 Clear CLR 22 21     93%   23 1011.9 1011.2      
May 27 18:53 Calm 16.09 Clear CLR 23 21     85%   24 1011.2 1010.5 0   0
May 27 17:53 SE 5 16.09 Clear   25 19     71%   25 1011.2 1010.2 0    
May 27 16:53 E 13 16.09 Clear CLR 29 21     59%   32 1011.2 1010      
May 27 15:53 ENE 13 16.09 Mostly Clear FEW039 29 21     59%   32 1011.5 1010.4      
May 27 14:53 E 17 16.09 Partly Cloudy FEW037 SCT090 29 21     59%   32 1011.9 1010.9      
May 27 13:53 ESE 11 16.09 Clear CLR 28 21     63%   30 1012.5 1011.7      
May 27 12:53 ESE 9 16.09 Clear CLR 29 20     59%   31 1013.2 1012.2      
May 27 11:53 ESE 11 16.09 Partly Cloudy SCT035 SCT055 28 21     63%   30 1013.9 1012.8      
May 27 10:53 ENE 9 16.09 Mostly Clear FEW025 FEW031 28 21     63%   30 1014.2 1013.2      
May 27 09:53 ENE 11 16.09 Clear CLR 27 21     71%   28 1014.6 1013.4      
May 27 08:53 ENE 11 16.09 Mostly Clear FEW011 24 21     79%   25 1014.2 1013.5      
May 27 08:06 ENE 8 16.09 Partly Cloudy SCT005 23 21     87%   23 1014.2        
May 27 07:53 ENE 9 16.09 Mostly Cloudy BKN005 22 21     91%   23 1014.2 1013.5      
May 27 06:53 E 9 16.09 Cloudy OVC005 22 21     93%   22 1014.2 1013.4      
May 27 06:16 ENE 8 16.09 Mostly Cloudy BKN006 22 20     90%   22 1014.2        
May 27 06:08 ENE 9 16.09 Partly Cloudy SCT006 22 20     90%   22 1014.2        
May 27 05:53 NE 9 16.09 Clear CLR 21 20     93%     1013.9 1013      
May 27 04:53 E 5 16.09 Partly Cloudy SCT020 22 21     91%   23 1013.6 1012.4      
May 27 04:05 NNE 5 16.09 Cloudy SCT013 OVC020 22 21     93%   23 1013.2        
May 27 03:53 Calm 16.09 Cloudy BKN013 OVC019 22 21     91%   23 1013.2 1012.3      
May 27 03:49 Calm 16.09 Cloudy OVC016 22 21     94%   23 1013.2        
May 27 03:24 Calm 16.09 Cloudy OVC014 22 21     91%   23 1013.2        
May 27 02:53 Calm 16.09 Cloudy OVC015 22 21     91%   23 1013.2 1012.1      
May 27 02:13 Calm 16.09 Cloudy OVC014 22 21     93%   22 1013.2        
May 27 01:53 Calm 16.09 Mostly Cloudy BKN015 22 21     93%   22 1013.6 1012.5      
May 27 00:53 WSW 5 16.09 Partly Cloudy SCT017 22 20     90%   22 1013.6 1012.4      
May 27 00:05 SSW 5 16.09 Partly Cloudy SCT018 23 20     82%   24 1013.6        
May 26 23:53 Calm 16.09 Mostly Cloudy BKN019 BKN025 23 20     82%   24 1013.6 1012.7      
May 26 23:10 ENE 5 16.09 Mostly Cloudy BKN020 BKN042 24 21     79%   25 1013.9        
May 26 22:53 Calm 16.09 Mostly Cloudy BKN040 BKN050 BKN060 25 20     74%   25 1013.9 1013      
May 26 21:53 Calm 16.09 Partly Cloudy FEW037 SCT055 24 21     79%   25 1013.6 1012.5      
May 26 20:53 Calm 16.09 Clear CLR 23 21     90%   23 1012.9 1011.9      
May 26 19:53 Calm 16.09 Clear CLR 24 21     84%   25 1011.5 1010.8      
May 26 18:53 SW 5 16.09 Mostly Clear FEW041 26 22     79%   28 1011.5 1010.5      
May 26 17:53 SW 5 16.09 Clear CLR 28 21     67%   30 1011.2 1010.3      
May 26 17:50 WSW 5 16.09 Clear CLR 27 22     74%   29 1011.2        
May 26 17:31 SSE 9 16.09 Partly Cloudy SCT046 29 21     61%   31 1011.2        
May 26 16:53 Calm 16.09 Mostly Cloudy SCT044 BKN100 29 20     59%   31 1011.5 1010.5      
May 26 15:53 Calm 16.09 Mostly Clear FEW070 FEW100 30 20     55%   32 1011.2 1010.2      
May 26 14:53 ESE 9 16.09 Mostly Cloudy FEW040 BKN100 29 20     59%   31 1011.9 1010.8      
May 26 13:53 S 9 16.09 Mostly Clear FEW039 29 20     59%   31 1012.9 1011.8      
May 26 12:53 Calm 16.09 Mostly Clear FEW033 28 20     61%   30 1013.9 1012.9     0
May 26 11:53 Calm 16.09 Mostly Clear FEW026 27 20     65%   29 1014.6 1013.6      
May 26 10:53 Calm 16.09 Mostly Clear FEW020 26 21     74%   26 1015.2 1014.5      
May 26 10:02 Calm 16.09 Mostly Cloudy SCT019 BKN026 BKN032 24 21     79%   25 1015.2        
May 26 09:53 Calm 16.09 Mostly Cloudy FEW016 SCT026 BKN032 24 20     76%   25 1015.2 1014.5   0  
May 26 08:53 Calm 16.09 Mostly Cloudy BKN021 23 21     85%   24 1015.6 1014.6 0    
May 26 08:48 Calm 16.09 Mostly Cloudy FEW008 BKN021 23 21     89%   24 1015.6   0    
May 26 08:14 SSE 5 16.09 Partly Cloudy FEW005 FEW045 SCT095 22 21     91%   23 1015.2   0    
May 26 07:53 Calm 14.48 Light Rain FEW038 SCT100 SCT120 22 21     91%   23 1014.9 1014 0    
May 26 07:17 Calm 16.09 Mostly Clear FEW007 22 21     93%   22 1014.6        
May 26 06:53 Calm 14.48 Cloudy FEW009 OVC017 22 21     93%   22 1014.2 1013.5      
May 26 06:29 SSE 5 12.87 Mostly Cloudy BKN016 21 20     93%     1014.2        
May 26 05:58 Calm 6.44 Fog/Mist CLR 21 19     93%     1013.9        
May 26 05:53 Calm 2.82 Fog/Mist CLR 20 19     96%     1013.6 1013      
May 26 05:48 Calm 2.41 Fog/Mist CLR 20 19     94%     1013.6        
May 26 05:08 Calm 16.09 Partly Cloudy FEW006 SCT012 21 19     93%     1013.2        
May 26 04:53 Calm 16.09 Mostly Cloudy FEW005 BKN012 21 20     96%     1013.2 1012.3      
May 26 04:50 WSW 5 16.09 Cloudy FEW005 OVC012 21 20     94%     1013.2        
May 26 04:36 Calm 14.48 Mostly Cloudy BKN013 21 20     96%     1013.2        
May 26 04:10 Calm 16.09 Partly Cloudy SCT015 21 20     93%     1013.6        
May 26 04:00 Calm 16.09 Mostly Cloudy BKN014 BKN032 22 21     93%   22 1013.6        
May 26 03:53 Calm 16.09 Cloudy BKN016 OVC032 22 21     93%   22 1013.6 1012.5      
May 26 02:53 Calm 16.09 Partly Cloudy SCT033 22 20     90%   22 1013.2 1012.3      
May 26 01:53 Calm 16.09 Mostly Cloudy BKN100 21 20     93%     1013.9 1012.8      
May 26 00:53 Calm 16.09 Clear CLR 21 19     90%     1014.2 1013.1     0
May 25 23:53 Calm 16.09 Clear CLR 21 20     93%     1014.6 1013.6      
May 25 22:53 Calm 16.09 Mostly Cloudy SCT080 BKN090 22 21     91%   23 1014.6 1013.6      
May 25 21:53 Calm 16.09 Partly Cloudy SCT120 23 20     84%   23 1014.9 1014 0 0  
May 25 20:53 S 5 16.09 Mostly Clear FEW120 23 21     87%   23 1014.9 1014.1 0    
May 25 19:53 W 11 16.09 Clear CLR 24 21     82%   24 1014.6 1013.7      
May 25 18:53 WSW 9 16.09 Clear CLR 24 21     79%   25 1013.9 1013      
May 25 17:53 WSW 13 16.09 Clear CLR 25 21     77%   26 1013.2 1012.5      
May 25 16:53 W 13 16.09 Clear CLR 27 21     71%   28 1013.2 1012.4      
May 25 15:53 Calm 16.09 Clear CLR 28 20     61%   30 1013.9 1012.8      
May 25 14:53 5 16.09 Partly Cloudy FEW048 SCT080 SCT100 29 19     57%   30 1014.6 1013.5      
May 25 13:53 E 11 16.09 Mostly Cloudy SCT040 BKN048 29 21     59%   32 1014.9 1013.9      
May 25 12:53 E 9 16.09 Clear CLR 28 21     63%   30 1015.9 1015      
May 25 11:53 11 16.09 Partly Cloudy FEW029 SCT035 28 21     67%   30 1016.9 1016.1      
May 25 11:01 ENE 11 16.09 Mostly Clear FEW024 27 21     69%   29 1017.6        
May 25 10:53 ENE 13 16.09 Mostly Cloudy SCT023 BKN029 27 21     71%   28 1017.6 1016.7      
May 25 09:53 NE 11 16.09 Cloudy OVC018 26 21     74%   26 1018 1017.1      
May 25 09:20 ENE 8 16.09 Cloudy OVC015 24 21     82%   25 1018        
May 25 08:53 ENE 11 16.09 Cloudy OVC013 24 21     82%   24 1018.3 1017.4      
May 25 08:16 NE 5 16.09 Mostly Cloudy BKN011 BKN045 24 21     84%   25 1018.3        
May 25 07:53 NE 5 16.09 Mostly Cloudy SCT008 BKN036 BKN046 23 21     87%   24 1018.3 1017.3      
May 25 07:36 NE 11 16.09 Mostly Cloudy FEW009 BKN037 BKN049 23 21     90%   23 1018        
May 25 07:14 E 5 16.09 Cloudy SCT013 OVC039 23 21     90%   23 1018        
May 25 06:53 8 16.09 Cloudy BKN012 OVC035 22 21     93%   23 1018 1017.1      
May 25 05:53 NE 5 14.48 Clear CLR 22 21     93%   22 1017.3 1016.3      
May 25 05:19 NE 8 16.09 Mostly Cloudy SCT015 BKN045 22 21     93%   22 1017.3        
May 25 05:08 ENE 8 16.09 Mostly Cloudy BKN014 BKN041 22 21     93%   22 1017.3        
May 25 04:53 NE 8 16.09 Partly Cloudy FEW016 SCT039 22 21     91%   23 1017.3 1016.1      
May 25 03:53 E 5 16.09 Mostly Cloudy BKN039 22 21     91%   23 1016.9 1015.9      
May 25 02:53 Calm 16.09 Mostly Cloudy SCT032 BKN044 BKN055 22 21     91%   23 1016.9 1015.8      
May 25 02:21 Calm 16.09 Cloudy OVC030 23 21     87%   23 1017.6        
May 25 02:04 Calm 16.09 Cloudy BKN029 OVC035 23 21     87%   23 1017.6        
May 25 01:53 Calm 16.09 Cloudy BKN031 OVC040 22 21     91%   23 1017.6 1016.6      
May 25 00:53 SE 5 16.09 Mostly Cloudy SCT040 BKN050 BKN100 22 21     93%   22 1018.3 1017.3      
May 14 23:53 Calm 16.09 Clear CLR 23 20     84%   23 1015.2 1014      
May 14 10:53 N 11 16.09 Mostly Clear FEW055 31 17     43%   32 1017.6 1016.7      
May 13 07:53 E 5 16.09 Clear CLR 19 17     84%     1021.3 1020.6      
May 13 01:53 Calm 16.09 Clear CLR 17 16     90%     1018.6 1017.8      
May 12 13:53 11 16.09 Clear CLR 32 13     33%   31 1020 1019.2      
May 12 01:53 Calm 16.09 Clear CLR 18 16     90%     1019.3 1018.4      
Notice The following observation data may not be complete
May 11 19:53 Calm 16.09 Clear CLR   17      %     1018.6 1017.9      
Jun 11 20:53 Calm 16.09 Partly Cloudy SCT048 SCT080 27 21     71%   28 1019.7 1018.7      
Jun 11 08:33 ENE 8 16.09 Partly Cloudy SCT018 24 21     79%   25 1022.4        
Jun 10 18:53 SSE 8 16.09 Clear CLR 28 17     49%   29 1017.6 1016.8      
Jun 09 15:53 WSW 13 16.09 Clear CLR 28 14     41%   28 1014.2 1013.5      
Jun 09 00:53 Calm 16.09 Clear CLR 18 16     87%     1013.2 1012.4